SANT SADURNÍ D'OSORMORT





Hora UTC 07:25
Temperatura 0.3 ºC
Humedad 95.3 %
Pluja 0.0 mm
Velocidad viento 0.0 km/h
Dirección viento NNE

Datos diarios 2022-12-01



Hora UTC (invierno +1h; verano +2h)
Temperatura (ºC) Humedad (%) Velocidad viento (km/h) Precipitación (mm)
Hora UTC Aire Humedad Vel. Dir. Vel. Max Dir. Intent. máx 5 min.
00:05 1.8 90.4 0.0 NNE 0.0 NE 0.0
00:10 1.8 90.7 0.0 NNE 0.0 NE 0.0
00:15 1.8 90.8 0.0 NNE 0.0 NE 0.0
00:20 1.8 90.9 0.0 NNE 0.0 NE 0.0
00:25 1.9 90.9 0.0 NNE 0.0 NE 0.0
00:30 1.9 91.0 0.0 NNE 0.0 W 0.0
00:35 2.0 91.0 0.0 NNE 0.0 W 0.0
00:40 2.0 91.0 0.0 NNE 0.0 W 0.0
00:45 2.0 90.9 0.0 NNE 0.0 W 0.0
00:50 2.0 91.0 0.0 NNE 0.0 W 0.0
00:55 2.0 91.1 0.0 NNE 0.0 W 0.0
01:00 2.0 91.1 0.0 NNE 0.0 W 0.0
01:05 2.1 91.2 0.0 NNE 0.0 W 0.0
01:10 2.1 91.2 0.0 NNE 0.0 W 0.0
01:15 2.2 91.3 0.0 NNE 0.0 W 0.0
01:20 2.2 91.2 0.0 NNE 0.0 W 0.0
01:25 2.2 91.2 0.0 NNE 0.0 W 0.0
01:30 2.3 91.3 0.0 NNE 0.0 W 0.0
01:35 2.3 91.1 0.0 NNE 0.0 W 0.0
01:40 2.4 91.0 0.0 NNE 0.0 W 0.0
01:45 2.4 90.9 0.0 NNE 0.0 NE 0.0
01:50 2.4 90.6 0.0 NNE 0.0 NE 0.0
01:55 2.3 90.4 0.0 NNE 0.0 NE 0.0
02:00 2.1 90.2 0.0 NNE 0.0 NE 0.0
02:05 1.9 90.1 0.0 NNE 0.0 NE 0.0
02:10 1.7 89.9 0.0 NNE 0.0 NE 0.0
02:15 1.5 90.3 0.0 NNE 0.0 NE 0.0
02:20 1.3 90.3 0.0 NNE 0.0 NE 0.0
02:25 1.0 90.2 0.0 NNE 0.0 NE 0.0
02:30 0.8 90.4 0.0 NNE 0.0 NE 0.0
02:35 0.7 91.0 0.0 NNE 0.0 NE 0.0
02:40 0.3 90.1 0.0 NNE 0.0 NE 0.0
02:45 0.1 90.9 0.0 NNE 0.0 NE 0.0
02:50 -0.1 91.1 0.0 NNE 0.0 NE 0.0
02:55 -0.4 90.8 0.0 NNE 0.0 NE 0.0
03:00 -0.5 91.4 0.0 NNE 0.0 NE 0.0
03:05 -0.6 91.8 0.0 NNE 0.0 NE 0.0
03:10 -0.5 92.3 0.0 NNE 0.0 NE 0.0
03:15 -0.5 92.5 0.0 NNE 0.0 NE 0.0
03:20 -0.5 92.7 0.0 NNE 0.0 NE 0.0
03:25 -0.1 93.5 0.0 NNE 0.0 NE 0.0
03:30 0.1 93.6 0.0 NNE 0.0 NE 0.0
03:35 0.0 93.0 0.0 NNE 0.0 NE 0.0
03:40 0.0 93.3 0.0 NNE 0.0 NE 0.0
03:45 0.1 93.6 0.0 NNE 0.0 NE 0.0
03:50 0.2 93.6 0.0 NNE 0.0 NE 0.0
03:55 0.2 93.8 0.0 NNE 0.0 NE 0.0
04:00 0.4 93.9 0.0 NNE 0.0 NE 0.0
04:05 0.4 93.9 0.0 NNE 0.0 NE 0.0
04:10 0.5 93.9 0.0 NNE 0.0 NE 0.0
04:15 0.5 93.8 0.0 NNE 0.0 NE 0.0
04:20 0.6 93.8 0.0 NNE 0.0 NE 0.0
04:25 0.5 93.5 0.0 NNE 0.0 NE 0.0
04:30 0.5 93.7 0.0 NNE 0.0 NE 0.0
04:35 0.4 93.5 0.0 NNE 0.0 NE 0.0
04:40 0.3 93.5 0.0 NNE 0.0 NE 0.0
04:45 0.1 93.2 0.0 NNE 0.0 NE 0.0
04:50 -0.1 93.1 0.0 NNE 0.0 NE 0.0
04:55 -0.3 93.1 0.0 NNE 0.0 NE 0.0
05:00 -0.5 93.2 0.0 NNE 0.0 NE 0.0
05:05 -0.6 93.1 0.0 NNE 0.0 NE 0.0
05:10 -0.7 93.5 0.0 NNE 0.0 NE 0.0
05:15 -0.8 93.4 0.0 NNE 0.0 NE 0.0
05:20 -1.0 93.4 0.0 NNE 0.0 NE 0.0
05:25 -1.0 93.8 0.0 NNE 0.0 NE 0.0
05:30 -1.1 93.9 0.0 NNE 0.0 NE 0.0
05:35 -1.1 94.0 0.0 NNE 0.0 NE 0.0
05:40 -1.0 94.3 0.0 NNE 0.0 NE 0.0
05:45 -0.6 95.2 0.0 NNE 0.0 NE 0.0
05:50 -0.5 94.9 0.0 NNE 0.0 NE 0.0
05:55 -0.6 94.3 0.0 NNE 0.0 NE 0.0
06:00 -0.6 94.5 0.0 NNE 0.0 NE 0.0
06:05 -0.5 94.7 0.0 NNE 0.0 NE 0.0
06:10 -0.4 94.7 0.0 NNE 0.0 NE 0.0
06:15 -0.4 94.7 0.0 NNE 0.0 NE 0.0
06:20 -0.4 94.7 0.0 NNE 0.0 NE 0.0
06:25 -0.2 95.0 0.0 NNE 0.0 NE 0.0
06:30 0.0 95.2 0.0 NNE 0.0 NE 0.0
06:35 0.1 95.1 0.0 NNE 0.0 NE 0.0
06:40 0.0 94.7 0.0 NNE 0.0 NE 0.0
06:45 -0.1 94.6 0.0 NNE 0.0 NE 0.0
06:50 -0.1 94.7 0.0 NNE 0.0 NE 0.0
06:55 -0.1 94.8 0.0 NNE 0.0 NE 0.0
07:00 0.0 94.9 0.0 NNE 0.0 NE 0.0
07:05 0.0 95.0 0.0 NNE 0.0 NE 0.0
07:10 0.1 95.2 0.0 NNE 0.0 NE 0.0
07:15 0.2 95.2 0.0 NNE 0.0 NE 0.0
07:20 0.2 95.1 0.0 NNE 0.0 NE 0.0
07:25 0.3 95.3 0.0 NNE 0.0 NE 0.0
Máxima 2.4 95.3 0.0 NNE 0.0 NE 0.0
Mínima -1.1 89.9
Total 0.0